Location: Unspecified
(51.0950°N, 12.9690°E)
Time: 22:02:40
(UTC+00:00)

CZ-4 R/B - Pass Details

Date: 28 October 2021
Orbit: 531 x 595 km, 97.8° (Epoch: 01 December)

Event Time Altitude Azimuth Distance (km) Brightness Sun altitude
Exits shadow 18:01:13 - 175° (S) 2,306 4.4 -21.2°
Reaches altitude 10° 18:02:15 10° 177° (S) 1,881 3.9 -21.4°
Maximum altitude 18:06:18 63° 258° (WSW) 657 1.8 -22.0°
Drops below altitude 10° 18:10:28 10° 340° (NNW) 1,928 4.4 -22.7°
Sets 18:12:41 0° 344° (NNW) 2,841 5.3 -23.0°
